• In Portugal
  • List of Countries
  • For 7 days
  • Water Temperature
  • Satellite Maps
  • Weather Map
  • Weather Widgets
  • user-avatar
    Login

    Hourly Weather Wien

    Today, 17 August, Friday

    Time Temperature Precipitation Wind Pressure Humidity
    00:00 +20°C° 0 mm 1 mps 744 mmHg 64%
    01:00 +20°C° 0 mm 1 mps 744 mmHg 66%
    02:00 +20°C° 0 mm 1 mps 744 mmHg 68%
    03:00 +19°C° 0 mm 1 mps 744 mmHg 69%
    04:00 +19°C° 0 mm 1 mps 743 mmHg 71%
    05:00 +20°C° 0 mm 1 mps 743 mmHg 68%
    06:00 +21°C° 0 mm 1 mps 744 mmHg 66%
    07:00 +22°C° 0 mm 1 mps 744 mmHg 63%
    08:00 +24°C° 0 mm 1 mps 744 mmHg 56%
    09:00 +26°C° 0 mm 2 mps 744 mmHg 49%
    10:00 +28°C° 0 mm 2 mps 744 mmHg 43%
    11:00 +29°C° 0 mm 2 mps 743 mmHg 39%
    12:00 +30°C° 0 mm 2 mps 743 mmHg 36%
    13:00 +31°C° 0 mm 2 mps 743 mmHg 33%
    14:00 +31°C° 0 mm 2 mps 743 mmHg 32%
    15:00 +32°C° 0 mm 1 mps 743 mmHg 32%
    16:00 +32°C° 0 mm 1 mps 743 mmHg 31%
    17:00 +30°C° 0 mm 1 mps 743 mmHg 37%
    18:00 +28°C° 0 mm 1 mps 743 mmHg 43%
    19:00 +25°C° 0 mm 1 mps 742 mmHg 48%
    20:00 +25°C° 0 mm 1 mps 743 mmHg 51%
    21:00 +24°C° 0 mm 1 mps 743 mmHg 53%
    22:00 +23°C° 0 mm 1 mps 744 mmHg 56%
    23:00 +22°C° 0 mm 1 mps 744 mmHg 58%

    Tomorrow, 18 August, Saturday

    Time Temperature Precipitation Wind Pressure Humidity
    00:00 +22°C° 0 mm 1 mps 744 mmHg 60%
    01:00 +21°C° 0 mm 1 mps 744 mmHg 62%
    02:00 +21°C° 0 mm 1 mps 744 mmHg 63%
    03:00 +20°C° 0 mm 1 mps 744 mmHg 64%
    04:00 +20°C° 0 mm 1 mps 745 mmHg 65%
    05:00 +21°C° 0 mm 1 mps 745 mmHg 64%
    06:00 +22°C° 0 mm 1 mps 745 mmHg 62%
    07:00 +23°C° 0 mm 1 mps 745 mmHg 60%
    08:00 +25°C° 0 mm 1 mps 745 mmHg 54%
    09:00 +27°C° 0 mm 2 mps 746 mmHg 49%
    10:00 +29°C° 0 mm 2 mps 746 mmHg 43%
    11:00 +30°C° 0 mm 2 mps 746 mmHg 40%
    12:00 +31°C° 0 mm 2 mps 745 mmHg 38%
    13:00 +32°C° 0 mm 1 mps 745 mmHg 35%
    14:00 +32°C° 0 mm 2 mps 745 mmHg 34%
    15:00 +32°C° 0 mm 2 mps 745 mmHg 34%
    16:00 +32°C° 0 mm 2 mps 745 mmHg 33%
    17:00 +30°C° 0 mm 2 mps 745 mmHg 39%
    18:00 +28°C° 0 mm 1 mps 745 mmHg 44%
    19:00 +26°C° 0 mm 1 mps 745 mmHg 49%
    20:00 +25°C° 0 mm 2 mps 745 mmHg 53%
    21:00 +25°C° 0 mm 2 mps 746 mmHg 56%
    22:00 +24°C° 0 mm 2 mps 746 mmHg 59%
    23:00 +23°C° 0 mm 2 mps 746 mmHg 62%

    Day after tomorrow, 19 August, Sunday

    Time Temperature Precipitation Wind Pressure Humidity
    00:00 +23°C° 0 mm 2 mps 746 mmHg 65%
    01:00 +21°C° 0 mm 2 mps 746 mmHg 69%
    02:00 +21°C° 0 mm 2 mps 746 mmHg 71%
    03:00 +20°C° 0 mm 2 mps 746 mmHg 73%
    04:00 +20°C° 0 mm 2 mps 746 mmHg 75%
    05:00 +21°C° 0 mm 2 mps 746 mmHg 72%
    06:00 +23°C° 0 mm 2 mps 747 mmHg 70%
    07:00 +23°C° 0 mm 2 mps 747 mmHg 68%
    08:00 +25°C° 0 mm 2 mps 747 mmHg 61%
    09:00 +27°C° 0 mm 2 mps 747 mmHg 55%
    10:00 +29°C° 0 mm 3 mps 747 mmHg 48%
    11:00 +30°C° 0 mm 2 mps 747 mmHg 45%
    12:00 +31°C° 0 mm 2 mps 746 mmHg 41%
    13:00 +32°C° 0 mm 2 mps 746 mmHg 37%
    14:00 +32°C° 0 mm 2 mps 746 mmHg 37%
    15:00 +32°C° 0 mm 2 mps 745 mmHg 36%
    16:00 +32°C° 0 mm 2 mps 745 mmHg 36%
    17:00 +30°C° 0 mm 2 mps 745 mmHg 42%
    18:00 +28°C° 0 mm 2 mps 745 mmHg 47%
    19:00 +27°C° 0 mm 2 mps 745 mmHg 53%
    20:00 +26°C° 0 mm 2 mps 745 mmHg 56%
    21:00 +25°C° 0 mm 2 mps 745 mmHg 60%
    22:00 +24°C° 0 mm 2 mps 746 mmHg 63%
    23:00 +23°C° 0 mm 2 mps 746 mmHg 65%

    20 August, Monday

    Time Temperature Precipitation Wind Pressure Humidity
    00:00 +23°C° 0 mm 2 mps 745 mmHg 68%
    01:00 +21°C° 0 mm 2 mps 745 mmHg 70%
    02:00 +22°C° 0 mm 1 mps 745 mmHg 72%
    03:00 +21°C° 0 mm 1 mps 745 mmHg 73%
    04:00 +21°C° 0 mm 1 mps 745 mmHg 75%
    05:00 +22°C° 0 mm 1 mps 745 mmHg 72%
    06:00 +23°C° 0 mm 1 mps 745 mmHg 70%
    07:00 +24°C° 0 mm 1 mps 746 mmHg 67%
    08:00 +26°C° 0 mm 1 mps 746 mmHg 61%
    09:00 +27°C° 0 mm 1 mps 746 mmHg 55%
    10:00 +29°C° 0 mm 2 mps 746 mmHg 49%
    11:00 +30°C° 0.1 mm 2 mps 745 mmHg 46%
    12:00 +31°C° 0.1 mm 2 mps 745 mmHg 42%
    13:00 +32°C° 0.1 mm 2 mps 745 mmHg 38%
    14:00 +32°C° 0 mm 2 mps 745 mmHg 38%
    15:00 +32°C° 0 mm 2 mps 744 mmHg 37%
    16:00 +32°C° 0 mm 2 mps 744 mmHg 37%
    17:00 +30°C° 0 mm 2 mps 744 mmHg 42%
    18:00 +29°C° 0 mm 2 mps 744 mmHg 47%
    19:00 +27°C° 0 mm 1 mps 744 mmHg 53%
    20:00 +26°C° 0 mm 1 mps 744 mmHg 55%
    21:00 +25°C° 0 mm 1 mps 745 mmHg 58%
    22:00 +24°C° 0 mm 1 mps 745 mmHg 60%
    23:00 +24°C° 0 mm 1 mps 745 mmHg 62%

    21 August, Tuesday

    Time Temperature Precipitation Wind Pressure Humidity
    00:00 +23°C° 0 mm 1 mps 745 mmHg 64%
    01:00 +23°C° 0 mm 1 mps 745 mmHg 66%
    02:00 +22°C° 0 mm 1 mps 745 mmHg 68%
    03:00 +22°C° 0 mm 1 mps 745 mmHg 69%
    04:00 +21°C° 0 mm 1 mps 745 mmHg 71%
    05:00 +22°C° 0 mm 1 mps 745 mmHg 68%
    06:00 +23°C° 0 mm 1 mps 746 mmHg 66%
    07:00 +24°C° 0 mm 1 mps 746 mmHg 64%
    08:00 +26°C° 0 mm 2 mps 746 mmHg 57%
    09:00 +28°C° 0 mm 2 mps 746 mmHg 51%
    10:00 +30°C° 0 mm 2 mps 746 mmHg 45%
    11:00 +31°C° 0 mm 2 mps 746 mmHg 43%
    12:00 +32°C° 0 mm 2 mps 745 mmHg 40%
    13:00 +34°C° 0 mm 2 mps 745 mmHg 38%
    14:00 +34°C° 0 mm 2 mps 745 mmHg 37%
    15:00 +34°C° 0 mm 2 mps 745 mmHg 37%
    16:00 +34°C° 0 mm 2 mps 744 mmHg 37%
    17:00 +31°C° 0 mm 2 mps 744 mmHg 43%
    18:00 +29°C° 0 mm 1 mps 744 mmHg 48%
    19:00 +27°C° 0 mm 1 mps 744 mmHg 53%
    20:00 +27°C° 0 mm 1 mps 745 mmHg 56%
    21:00 +26°C° 0 mm 1 mps 745 mmHg 59%
    22:00 +25°C° 0 mm 1 mps 745 mmHg 61%
    23:00 +25°C° 0 mm 1 mps 745 mmHg 63%

    22 August, Wednesday

    Time Temperature Precipitation Wind Pressure Humidity
    00:00 +24°C° 0 mm 1 mps 745 mmHg 65%
    01:00 +24°C° 0 mm 1 mps 745 mmHg 67%
    02:00 +23°C° 0 mm 1 mps 745 mmHg 69%
    03:00 +23°C° 0 mm 1 mps 745 mmHg 71%
    04:00 +22°C° 0 mm 1 mps 745 mmHg 72%
    05:00 +23°C° 0 mm 1 mps 745 mmHg 70%
    06:00 +24°C° 0 mm 1 mps 745 mmHg 67%
    07:00 +25°C° 0 mm 1 mps 745 mmHg 65%
    08:00 +27°C° 0.1 mm 1 mps 745 mmHg 60%
    09:00 +29°C° 0.1 mm 1 mps 745 mmHg 54%
    10:00 +31°C° 0.1 mm 1 mps 745 mmHg 48%
    11:00 +32°C° 0.2 mm 1 mps 745 mmHg 45%
    12:00 +33°C° 0.2 mm 1 mps 745 mmHg 42%
    13:00 +32°C° 0.2 mm 0 mps 744 mmHg 39%
    14:00 +32°C° 0 mm 0 mps 744 mmHg 38%
    15:00 +31°C° 0 mm 0 mps 744 mmHg 38%
    16:00 +31°C° 0 mm 0 mps 744 mmHg 38%
    17:00 +32°C° 0 mm 1 mps 744 mmHg 42%
    18:00 +30°C° 0 mm 1 mps 744 mmHg 46%
    19:00 +28°C° 0 mm 1 mps 744 mmHg 50%
    20:00 +27°C° 0.8 mm 1 mps 744 mmHg 57%
    21:00 +26°C° 0.8 mm 1 mps 744 mmHg 64%
    22:00 +24°C° 0.8 mm 2 mps 744 mmHg 71%
    23:00 +24°C° 0.7 mm 2 mps 744 mmHg 75%
    Show more